Flag for Canada Weather past 2 weeks in Strathcona County, Alberta, Canada

Now
39 °F

Rain. Mostly cloudy.


Feels Like: 30 °F
Forecast: 37 / 47 °F
Wind: 16 mph from West

Location: Edmonton Municipal


UV Index: 0 (Low)

Visibility: 5 mi


Pressure: 29.43 "Hg

Humidity: 70%

Dew point: 30 °F

Location of Strathcona CountyLocation

Historic Weather in Strathcona County

°F

Strathcona County temperature yesterday

Maximum temperature yesterday: 66 °F (at 2:00 PM)
Minimum temperature yesterday: 43 °F (at 3:00 AM)
Average temperature yesterday: 54 °F

Past Weeks' High & Low Weather Summary

 TemperatureHumidityPressure
High66 °F (Apr 8, 4:00 PM)76% (Apr 23, 8:00 AM)30.50 "Hg (Apr 23, 8:00 AM)
Low21 °F (Apr 12, 7:01 AM)23% (Apr 14, 6:00 PM)29.36 "Hg (Apr 23, 7:01 AM)
Average39 °F48%29.92 "Hg
* Reported Apr 8 12:00 Noon — Apr 23 12:00 Noon, Strathcona County, Weather by CustomWeather, © 2014

Note: Actual official high and low records may vary slightly from our data, if they occured in-between our weather recording intervals... More about our weather records

Advertising

Historic Weather Conditions — Data for Previous 24 hours

 ConditionsComfort  
Time TempWeatherWind HumidityBarometerVisibility
12:00 PM
Apr 23
41 °FLight rain. Mostly cloudy.12 mph70%29.41 "Hg4 mi
11:00 AM43 °FLight rain. Low clouds.10 mph71%29.38 "Hg8 mi
10:00 AM43 °FLight rain. Low clouds.6 mph71%29.37 "Hg5 mi
9:00 AM43 °FRain. Overcast.8 mph71%29.37 "Hg3 mi
8:00 AM43 °FLight rain. Low clouds.8 mph76%29.37 "Hg3 mi
7:01 AM45 °FRain. Mostly cloudy.12 mph71%29.36 "Hg5 mi
6:00 AM45 °FLight rain. Overcast.8 mph71%29.40 "Hg6 mi
5:00 AM48 °FLight rain. Overcast.13 mph58%29.39 "Hg9 mi
4:00 AM50 °FLight rain. Overcast.14 mph54%29.38 "Hg9 mi
3:00 AM52 °FOvercast.14 mph47%29.38 "Hg9 mi
2:00 AM52 °FLight rain. Overcast.12 mph50%29.40 "Hg9 mi
1:00 AM54 °FOvercast.14 mph44%29.41 "Hg9 mi
12:00 AM54 °FPassing clouds.13 mph44%29.44 "Hg9 mi
11:00 PM
Apr 22
55 °FPassing clouds.12 mph41%29.47 "Hg9 mi
10:00 PM57 °FPassing clouds.13 mph36%29.50 "Hg9 mi
9:00 PM57 °FOvercast.15 mph36%29.51 "Hg9 mi
8:00 PM61 °FPartly sunny.12 mph31%29.49 "Hg9 mi
7:00 PM63 °FPartly sunny.6 mph27%29.50 "Hg9 mi
6:00 PM64 °FSunny.7 mph28%29.51 "Hg9 mi
5:00 PM66 °FPassing clouds.14 mph26%29.50 "Hg9 mi
4:00 PM66 °FPassing clouds.20 mph26%29.52 "Hg9 mi
3:00 PM64 °FSunny.17 mph30%29.54 "Hg9 mi
2:00 PM66 °FSunny.16 mph28%29.57 "Hg9 mi
1:00 PM64 °FSunny.15 mph26%29.60 "Hg9 mi
Weather by CustomWeather, © 2014

See weather overview